Theta_e
317 317 317 317 317 318 320 318 320 320 321 322 325 324 323 323 322 322 321 320 319 319 319 319 319 319 318 316 316 315 314 314 313 313 313 313 312 310 308 307 307 306 305
316 315 314 315 314 314 314 315 316 318 317 319 322 324 322 321 321 321 321 320 320 320 320 319 318 316 314 313 312 312 311 309 308 308 307 307 306 304 302 301 300 300 300
316 315 314 313 312 312 313 313 314 317 318 319 321 322 323 323 323 319 317 317 318 316 315 314 313 312 310 309 308 308 307 306 304 302 300 299 299 299 299 299 298 298 298
315 314 312 312 312 316 316 317 318 320 321 321 319 317 318 318 314 313 312 311 311 310 309 308 308 308 307 306 306 305 303 301 299 298 297 297 298 298 298 298 298 298 299
314 314 313 313 314 316 317 317 317 317 315 313 312 311 311 311 311 310 310 308 309 309 309 308 306 305 304 302 301 300 298 298 297 297 297 297 297 297 297 297 297 298 298
314 313 312 313 314 314 315 313 310 309 310 310 311 311 311 309 308 308 308 307 307 307 306 305 302 301 300 299 298 297 297 297 297 297 297 298 297 297 297 298 298 297 298
312 311 312 312 313 312 312 311 311 310 308 308 307 305 306 305 305 306 306 306 305 304 302 301 301 300 297 296 296 296 296 297 298 299 298 298 298 298 298 299 299 299 299
312 310 311 311 311 312 312 310 309 308 307 306 304 300 300 301 303 304 303 303 302 300 299 298 297 296 296 296 296 297 299 299 299 300 299 299 299 299 299 299 299 300 301
310 309 309 310 310 310 310 309 308 307 305 303 300 298 298 298 298 298 298 298 297 296 295 295 295 295 296 297 297 298 299 299 300 301 301 300 299 299 300 300 300 302 302
307 307 307 306 307 309 309 307 305 304 303 300 298 298 298 297 296 296 296 295 295 294 294 294 295 296 297 297 299 300 302 303 303 303 302 302 301 299 300 301 301 301 301
307 306 306 306 306 308 307 305 304 304 302 298 298 298 297 297 297 297 297 295 295 294 294 294 295 297 298 300 301 301 302 303 303 303 302 302 303 302 300 300 300 300 300
307 307 306 305 305 306 306 304 303 302 299 299 300 300 299 298 297 298 298 297 296 295 295 296 298 299 301 302 303 303 304 303 303 303 303 303 303 302 302 302 302 302 301
307 307 306 306 305 301 302 302 302 299 300 300 300 300 300 299 298 298 298 299 299 299 299 300 300 302 303 303 303 303 303 303 303 302 302 302 302 302 302 302 302 302 303
307 307 306 306 305 301 299 298 299 300 300 301 301 300 301 300 300 300 300 300 300 301 300 301 302 302 303 304 303 303 302 302 303 302 302 302 301 301 300 301 301 302 303
308 307 306 305 304 300 299 299 299 300 300 301 302 301 301 302 302 302 303 303 303 304 304 303 303 303 303 303 303 303 303 303 302 302 302 301 301 300 300 300 300 301 302
307 308 306 304 303 300 299 299 299 299 300 301 302 303 303 303 304 304 304 305 304 304 304 304 304 304 303 303 304 303 303 303 302 302 301 301 300 300 300 300 300 300 300
307 308 307 304 302 300 299 300 299 299 300 302 303 304 304 305 304 305 305 305 305 305 304 304 304 304 304 304 303 303 303 303 302 301 300 301 301 300 300 300 300 300 300
308 307 307 303 301 300 300 300 300 300 300 302 303 304 305 305 304 305 305 304 305 304 304 305 305 303 304 303 303 303 303 302 302 302 302 301 300 301 301 300 300 301 301
307 306 304 301 300 300 300 301 301 300 301 302 303 304 304 304 304 305 305 305 305 305 305 305 305 305 305 305 304 304 304 304 304 303 302 302 302 301 301 301 301 301 301
307 304 302 301 301 300 301 301 301 300 301 302 303 304 305 305 305 305 304 306 306 305 305 305 306 306 306 306 306 306 306 305 304 304 304 303 303 303 302 300 300 300 300
305 303 301 300 300 300 301 302 302 303 302 303 304 304 306 306 305 306 305 306 306 306 306 305 305 306 306 305 305 305 306 307 306 305 305 304 304 304 304 302 301 301 301
304 302 301 300 300 301 301 302 304 304 303 304 304 305 306 305 305 306 305 306 305 305 304 304 304 305 305 306 305 304 304 306 306 306 306 305 305 305 305 303 302 302 302
303 301 300 300 301 302 302 303 304 304 303 304 304 305 305 305 306 306 305 305 304 304 303 303 303 302 302 304 305 305 304 304 306 306 306 305 305 305 304 303 303 303 303
301 300 300 300 301 302 302 303 303 304 303 304 305 305 305 306 306 306 305 304 303 303 302 302 302 302 302 302 301 302 305 304 304 305 306 306 306 306 304 304 304 304 304
300 300 299 300 301 302 302 301 301 302 303 304 304 304 305 305 305 305 304 304 304 303 303 302 301 301 301 300 301 302 304 304 303 304 304 304 304 307 304 304 304 304 302
300 299 299 299 300 300 301 301 301 301 301 302 302 302 303 304 304 304 304 304 304 303 301 300 300 301 300 300 300 301 303 304 304 304 304 304 304 304 305 304 305 305 302
Wind_Speed
30 33 35 32 29 26 24 22 20 20 18 16 12 13 10 8 9 9 8 9 10 9 8 6 6 7 8 7 7 7 7 6 6 9 12 15 19 22 23 23 23 24 24
33 37 38 34 32 30 29 27 24 20 20 17 14 16 18 17 12 10 9 11 10 9 9 8 7 5 7 6 6 8 9 10 11 13 18 22 22 21 19 18 17 16 17
34 36 35 36 38 39 32 27 26 21 19 17 15 14 19 18 17 11 12 12 14 12 9 6 5 5 7 9 10 12 14 15 17 15 13 12 12 12 12 12 11 12 12
35 33 35 40 44 38 28 24 20 15 12 9 7 4 6 8 10 14 11 7 6 4 2 4 5 7 10 11 13 15 15 12 10 10 10 7 6 7 8 10 10 11 11
32 34 37 41 40 26 23 19 11 6 8 11 12 13 13 11 10 6 4 8 9 11 12 11 9 9 12 15 14 11 8 7 8 7 5 6 6 7 10 11 15 14 7
32 32 34 32 30 23 16 14 18 21 19 16 15 12 11 12 12 8 5 3 3 2 2 3 6 9 12 11 5 4 6 8 8 8 8 9 12 10 9 9 13 13 7
29 32 29 25 24 27 25 24 18 20 19 21 20 18 15 12 10 8 5 3 3 2 3 6 8 11 9 4 3 4 6 8 9 9 8 9 10 8 7 9 14 10 7
29 28 22 18 15 17 16 21 19 19 22 24 22 18 14 12 10 8 6 5 4 4 7 9 8 7 6 6 8 10 10 10 9 9 10 7 7 5 7 8 10 10 7
26 26 22 17 17 16 13 12 14 15 18 20 18 20 19 15 11 8 6 6 6 8 9 9 8 8 9 12 11 9 7 6 8 8 8 8 8 3 5 6 8 11 13
23 22 20 19 19 18 12 14 14 18 21 20 21 22 22 20 16 15 13 11 10 8 9 9 10 12 11 12 11 10 11 13 13 11 8 8 9 1 3 5 6 8 6
22 22 23 25 20 14 10 10 12 18 21 20 21 21 21 22 21 19 18 17 14 10 9 10 15 14 14 14 14 14 15 14 14 13 11 10 10 8 1 1 4 4 4
13 18 22 24 22 10 7 9 11 17 18 22 22 23 23 19 19 19 20 20 17 17 17 18 17 17 15 14 13 12 14 13 12 11 11 11 10 10 7 5 4 4 4
10 15 18 22 27 18 9 10 12 15 20 22 23 25 23 20 18 17 19 19 21 22 20 21 18 16 15 14 14 14 13 13 13 14 13 13 11 6 5 6 6 4 4
14 16 15 20 25 22 20 22 22 22 22 22 23 23 23 24 23 20 17 17 17 18 17 17 14 13 14 15 16 15 16 15 13 14 11 10 11 9 11 5 5 5 6
13 12 13 17 21 21 20 21 22 23 21 21 22 21 21 22 21 21 23 23 23 22 21 19 19 19 18 17 18 17 16 15 15 15 12 10 9 8 8 8 8 8 9
12 8 10 13 18 21 20 19 20 20 19 21 21 20 20 19 21 23 24 25 24 22 22 21 21 20 19 17 17 15 15 15 16 15 14 14 14 13 10 9 9 10 12
12 8 6 10 14 16 16 15 14 15 15 19 20 19 21 20 22 21 22 22 22 22 22 20 19 19 21 20 19 19 17 16 18 18 16 15 14 14 15 15 14 14 13
11 12 8 10 12 14 14 14 15 16 14 17 19 21 19 20 22 21 20 21 28 28 28 27 24 20 22 24 20 20 21 21 21 20 25 20 16 14 15 16 16 17 17
11 11 10 13 14 13 13 14 15 14 12 13 15 18 18 18 19 18 21 26 26 27 26 24 19 16 15 16 14 17 19 20 21 19 21 18 22 22 16 16 15 13 13
10 10 12 14 12 13 14 16 18 18 14 13 15 16 17 16 23 22 20 22 22 21 22 27 24 25 26 22 18 17 12 11 11 16 15 15 15 14 18 15 14 12 10
8 10 13 13 12 12 13 17 17 18 16 15 14 14 15 15 14 20 18 18 21 22 22 21 20 20 21 21 20 21 22 15 6 9 8 16 10 10 12 11 9 10 10
7 10 13 14 13 13 15 16 17 18 17 17 14 13 13 13 13 16 18 19 19 19 19 20 21 22 22 19 19 21 19 20 13 12 11 10 6 8 9 8 10 11 12
9 13 14 14 13 14 14 15 16 16 17 16 13 13 12 13 14 14 15 15 16 16 17 17 18 19 19 19 18 18 18 16 14 11 10 8 7 9 9 9 11 13 14
12 14 14 14 12 12 11 11 13 13 13 15 17 14 13 11 12 13 13 14 15 16 18 20 20 20 20 20 17 15 14 15 13 10 9 6 5 6 8 10 11 12 15
9 11 13 11 10 10 9 9 8 8 10 10 13 13 15 12 11 11 11 12 14 16 19 22 23 21 22 23 18 13 12 12 12 8 8 5 6 5 7 7 9 11 14
10 10 10 8 7 6 5 6 6 5 5 6 8 10 12 12 12 12 13 14 16 18 21 22 20 19 22 22 21 12 10 12 11 9 6 4 4 4 5 7 7 11 16
Wind_Direction
348 343 343 342 340 337 333 335 335 332 328 317 292 274 260 224 213 207 193 179 183 176 184 198 211 218 224 240 244 254 257 260 255 254 262 275 282 286 287 284 280 277 274
348 346 345 345 346 344 339 331 323 311 313 313 293 261 239 232 218 221 207 202 210 206 190 187 200 216 257 270 276 282 290 298 299 293 286 285 287 289 291 293 296 292 289
347 343 341 341 341 339 332 325 325 317 301 297 292 274 259 246 230 197 172 153 169 165 169 190 220 253 278 294 301 311 314 312 309 308 310 306 306 301 299 304 304 297 304
349 347 347 345 345 340 341 340 337 333 312 317 334 335 289 247 172 138 119 85 66 80 73 337 318 310 310 310 314 319 318 321 331 332 329 327 322 315 319 316 298 299 301
351 351 355 353 351 358 348 356 13 48 78 85 80 81 83 73 50 28 40 1 318 314 320 311 315 324 328 328 324 325 332 347 348 352 352 350 329 328 330 326 323 315 329
354 357 359 6 9 9 12 51 75 80 78 76 71 57 48 46 39 29 21 18 329 270 339 342 339 339 332 337 334 358 2 10 11 14 5 6 3 359 3 20 359 359 5
357 359 8 10 29 45 56 48 43 40 53 56 50 44 38 47 49 29 34 52 88 41 338 339 332 331 346 31 48 44 40 38 34 31 5 3 7 21 15 9 3 355 341
1 5 17 13 35 43 41 50 43 48 44 34 31 35 39 57 66 70 60 47 19 8 348 336 360 50 58 56 73 78 74 42 20 3 352 350 350 1 10 12 13 27 56
13 21 22 30 46 49 45 46 60 49 41 36 42 47 45 57 58 54 32 30 28 19 9 22 74 77 80 85 86 88 60 25 360 352 357 16 10 18 35 23 44 62 59
36 41 32 27 31 35 52 56 50 45 38 37 52 52 55 58 56 48 40 41 39 46 42 54 91 95 91 94 85 63 41 32 33 37 38 34 35 49 51 36 17 17 22
63 52 42 35 34 50 63 61 41 37 34 48 52 56 59 62 56 53 50 49 48 58 65 69 94 93 91 80 59 39 33 29 30 30 35 40 34 36 154 204 337 347 348
56 47 38 33 35 28 32 55 49 36 48 61 59 56 51 54 58 50 47 43 49 58 79 85 86 83 75 59 44 41 33 30 33 36 45 46 36 40 45 36 29 9 351
42 40 30 35 33 37 54 67 67 62 66 61 56 52 50 51 52 52 51 51 60 62 79 80 76 68 57 47 39 35 35 46 49 45 47 39 41 48 58 28 16 24 354
58 43 29 35 34 43 67 83 83 72 64 58 53 50 55 58 55 57 57 51 58 66 70 69 69 54 45 48 50 50 50 50 45 42 39 42 46 54 53 62 65 79 90
42 31 37 41 40 51 76 78 75 67 58 52 49 53 50 47 43 46 51 57 58 59 64 68 62 59 61 61 57 52 49 52 46 42 43 45 42 42 49 57 77 89 89
31 21 42 53 48 56 56 68 66 63 56 54 52 51 48 51 59 61 63 62 59 61 63 61 57 61 56 52 48 50 48 48 43 42 47 48 53 59 66 75 80 86 88
34 26 52 66 59 61 57 55 61 66 66 50 49 52 53 59 61 62 64 57 50 58 58 60 59 47 52 55 51 51 48 47 49 52 57 58 56 62 68 80 85 89 88
33 41 68 76 77 63 61 57 61 65 63 56 56 55 60 63 62 65 57 55 65 65 63 62 59 64 66 64 59 60 62 69 66 61 58 62 59 65 75 81 83 86 93
33 45 83 90 74 71 67 59 60 69 66 62 66 63 80 66 62 68 63 61 52 53 48 49 53 51 54 50 55 63 63 63 56 57 58 51 53 58 71 75 81 90 101
32 66 92 97 84 74 64 64 66 66 73 61 62 63 76 66 62 57 60 63 59 55 48 47 50 47 46 51 36 27 15 34 49 60 56 52 49 47 53 75 77 76 82
46 97 107 100 92 81 76 76 70 68 71 65 70 61 66 56 62 58 61 50 50 45 53 52 45 43 42 41 40 36 31 25 36 57 68 72 49 43 48 53 65 70 78
75 113 119 103 97 87 95 83 72 68 65 61 68 65 66 60 52 55 48 44 51 47 45 41 40 36 33 31 31 29 28 29 40 41 38 45 66 51 58 63 77 82 82
97 122 122 107 100 100 96 87 75 67 74 61 64 57 58 63 57 56 50 44 43 44 39 33 30 28 25 25 23 22 24 18 23 34 42 48 52 59 76 82 91 90 94
105 118 116 114 107 108 98 93 80 73 64 63 59 60 62 62 58 55 48 45 41 35 30 23 17 13 8 7 8 12 15 19 16 22 34 50 50 61 84 97 104 104 110
111 121 122 118 114 111 96 84 71 64 64 56 50 48 57 63 59 50 47 36 31 24 16 10 9 9 8 6 7 16 16 23 19 27 23 32 48 88 98 114 109 128 132
116 117 125 121 122 119 106 87 71 50 42 35 32 26 29 31 30 26 16 10 4 360 357 357 2 5 6 13 15 23 26 22 33 27 30 28 64 105 116 124 110 132 146